Wetterdaten: Montag, 19.10.2015
Datum Zeit Temp. A. Mod.Schuppen Feuchte A. Luftdruck Regen Wind Richtung Richtung Sonnenschein Helligkeit Solar
19.10.2015 00:00 7,8 C 7,6 C 90 % 1019,1 hPa 0,4 l/m 0,0 km/h (0 Bft) SW 225 0 min 0 lux 0 W/m
19.10.2015 00:05 7,8 C 7,6 C 90 % 1019,1 hPa 0,0 l/m 0,0 km/h (0 Bft) SW 225 0 min 0 lux 0 W/m
19.10.2015 00:10 7,8 C 7,6 C 89 % 1019,1 hPa 0,0 l/m 0,0 km/h (0 Bft) SW 225 0 min 0 lux 0 W/m
19.10.2015 00:15 7,8 C 7,6 C 89 % 1019,1 hPa 0,0 l/m 0,0 km/h (0 Bft) SW 225 0 min 0 lux 0 W/m
19.10.2015 00:20 7,8 C 7,6 C 89 % 1019,1 hPa 0,0 l/m 0,0 km/h (0 Bft) SW 225 0 min 0 lux 0 W/m
19.10.2015 00:25 7,8 C 7,6 C 89 % 1019,1 hPa 0,0 l/m 1,3 km/h (1 Bft) SW 220 0 min 0 lux 0 W/m
19.10.2015 00:30 7,8 C 7,7 C 89 % 1019,1 hPa 0,0 l/m 1,3 km/h (1 Bft) SW 220 0 min 0 lux 0 W/m
19.10.2015 00:35 7,8 C 7,7 C 89 % 1019,1 hPa 0,0 l/m 1,3 km/h (1 Bft) SW 220 0 min 0 lux 0 W/m
19.10.2015 00:40 7,9 C 7,7 C 89 % 1019,1 hPa 0,0 l/m 1,3 km/h (1 Bft) SW 220 0 min 0 lux 0 W/m
19.10.2015 00:45 7,8 C 7,7 C 90 % 1019,1 hPa 0,0 l/m 5,4 km/h (2 Bft) SW 220 0 min 0 lux 0 W/m
19.10.2015 00:50 7,8 C 7,7 C 90 % 1019,1 hPa 0,0 l/m 10,3 km/h (2 Bft) SW 220 0 min 0 lux 0 W/m
19.10.2015 00:55 7,8 C 7,6 C 90 % 1019,1 hPa 0,0 l/m 7,5 km/h (2 Bft) SW 225 0 min 0 lux 0 W/m
19.10.2015 00:59 7,8 C 7,7 C 90 % 1019,1 hPa 0,0 l/m 7,5 km/h (2 Bft) SW 225 0 min 0 lux 0 W/m
19.10.2015 01:05 7,8 C 7,6 C 90 % 1019,1 hPa 0,0 l/m 7,5 km/h (2 Bft) SW 225 0 min 0 lux 0 W/m
19.10.2015 01:10 7,8 C 7,7 C 90 % 1019,1 hPa 0,0 l/m 7,5 km/h (2 Bft) SW 225 0 min 0 lux 0 W/m
19.10.2015 01:15 7,8 C 7,7 C 90 % 1019,1 hPa 0,0 l/m 7,5 km/h (2 Bft) SW 225 0 min 0 lux 0 W/m
19.10.2015 01:20 7,8 C 7,7 C 90 % 1019,1 hPa 0,0 l/m 7,6 km/h (2 Bft) SW22.5 225 0 min 0 lux 0 W/m
19.10.2015 01:25 7,8 C 7,7 C 90 % 1019,1 hPa 0,0 l/m 7,6 km/h (2 Bft) SW22.5 225 0 min 0 lux 0 W/m
19.10.2015 01:30 7,8 C 7,7 C 90 % 1019,1 hPa 0,0 l/m 7,6 km/h (2 Bft) SW22.5 225 0 min 0 lux 0 W/m
19.10.2015 01:35 7,8 C 7,7 C 90 % 1019,1 hPa 0,0 l/m 7,6 km/h (2 Bft) SW22.5 225 0 min 0 lux 0 W/m
19.10.2015 01:40 7,8 C 7,7 C 90 % 1019,1 hPa 0,0 l/m 7,6 km/h (2 Bft) SW22.5 225 0 min 0 lux 0 W/m
19.10.2015 01:45 7,8 C 7,7 C 90 % 1019,1 hPa 0,0 l/m 7,6 km/h (2 Bft) SW22.5 225 0 min 0 lux 0 W/m
19.10.2015 01:50 7,9 C 7,7 C 90 % 1019,1 hPa 0,0 l/m 7,6 km/h (2 Bft) SW22.5 225 0 min 0 lux 0 W/m
19.10.2015 01:55 7,8 C 7,7 C 90 % 1019,1 hPa 0,0 l/m 7,6 km/h (2 Bft) SW22.5 225 0 min 0 lux 0 W/m
19.10.2015 01:59 7,8 C 7,7 C 90 % 1019,1 hPa 0,0 l/m 9,2 km/h (2 Bft) SW22.5 220 0 min 0 lux 0 W/m
19.10.2015 02:05 7,9 C 7,7 C 90 % 1019,1 hPa 0,0 l/m 9,5 km/h (2 Bft) SW22.5 225 0 min 0 lux 0 W/m
19.10.2015 02:10 7,9 C 7,7 C 90 % 1019,1 hPa 0,0 l/m 9,5 km/h (2 Bft) SW22.5 225 0 min 0 lux 0 W/m
19.10.2015 02:15 7,9 C 7,8 C 90 % 1019,1 hPa 0,0 l/m 9,5 km/h (2 Bft) SW22.5 225 0 min 0 lux 0 W/m
19.10.2015 02:20 7,9 C 7,8 C 90 % 1019,1 hPa 0,0 l/m 9,5 km/h (2 Bft) SW22.5 225 0 min 0 lux 0 W/m
19.10.2015 02:25 7,9 C 7,8 C 90 % 1019,1 hPa 0,0 l/m 9,5 km/h (2 Bft) SW22.5 225 0 min 0 lux 0 W/m
19.10.2015 02:30 7,9 C 7,8 C 90 % 1019,1 hPa 0,0 l/m 9,5 km/h (2 Bft) SW22.5 225 0 min 0 lux 0 W/m
19.10.2015 02:35 7,9 C 7,8 C 90 % 1019,1 hPa 0,0 l/m 9,5 km/h (2 Bft) SW22.5 225 0 min 0 lux 0 W/m
19.10.2015 02:40 7,9 C 7,8 C 90 % 1019,1 hPa 0,0 l/m 9,5 km/h (2 Bft) SW22.5 225 0 min 0 lux 0 W/m
19.10.2015 02:45 8,0 C 7,8 C 90 % 1019,1 hPa 0,0 l/m 9,5 km/h (2 Bft) SW22.5 225 0 min 0 lux 0 W/m
19.10.2015 02:50 8,0 C 7,8 C 90 % 1019,1 hPa 0,0 l/m 9,5 km/h (2 Bft) SW22.5 225 0 min 0 lux 0 W/m
19.10.2015 02:54 8,0 C 7,8 C 90 % 1019,1 hPa 0,0 l/m 9,5 km/h (2 Bft) SW22.5 225 0 min 0 lux 0 W/m
19.10.2015 03:00 8,0 C 7,8 C 90 % 1019,1 hPa 0,0 l/m 9,5 km/h (2 Bft) SW22.5 225 0 min 0 lux 0 W/m
19.10.2015 03:05 8,0 C 7,9 C 90 % 1019,1 hPa 0,0 l/m 9,5 km/h (2 Bft) SW22.5 225 0 min 0 lux 0 W/m
19.10.2015 03:10 8,0 C 7,9 C 90 % 1019,1 hPa 0,0 l/m 0,0 km/h (0 Bft) S-SW 210 0 min 0 lux 0 W/m
19.10.2015 03:15 8,0 C 7,9 C 90 % 1019,1 hPa 0,0 l/m 0,0 km/h (0 Bft) S-SW 210 0 min 0 lux 0 W/m
19.10.2015 03:19 8,0 C 7,9 C 90 % 1019,1 hPa 0,0 l/m 0,0 km/h (0 Bft) S-SW 210 0 min 0 lux 0 W/m
19.10.2015 03:25 8,0 C 7,9 C 90 % 1019,1 hPa 0,0 l/m 0,0 km/h (0 Bft) S-SW 210 0 min 0 lux 0 W/m
19.10.2015 03:30 8,0 C 7,9 C 90 % 1019,1 hPa 0,0 l/m 0,0 km/h (0 Bft) S-SW 210 0 min 0 lux 0 W/m
19.10.2015 03:35 8,0 C 7,9 C 90 % 1019,1 hPa 0,0 l/m 0,0 km/h (0 Bft) S-SW 210 0 min 0 lux 0 W/m
19.10.2015 03:40 8,0 C 7,9 C 90 % 1019,1 hPa 0,0 l/m 0,0 km/h (0 Bft) S-SW 210 0 min 0 lux 0 W/m
19.10.2015 03:45 8,0 C 7,9 C 90 % 1019,1 hPa 0,0 l/m 0,0 km/h (0 Bft) S-SW 210 0 min 0 lux 0 W/m
19.10.2015 03:49 8,0 C 7,9 C 90 % 1019,1 hPa 0,0 l/m 0,0 km/h (0 Bft) S-SW 210 0 min 0 lux 0 W/m
19.10.2015 03:55 8,0 C 7,9 C 90 % 1019,1 hPa 0,0 l/m 0,0 km/h (0 Bft) S-SW 210 0 min 0 lux 0 W/m
19.10.2015 04:00 8,0 C 8,0 C 90 % 1019,1 hPa 0,0 l/m 0,0 km/h (0 Bft) S-SW 210 0 min 0 lux 0 W/m
19.10.2015 04:05 8,0 C 8,0 C 90 % 1019,1 hPa 0,0 l/m 0,0 km/h (0 Bft) S-SW 210 0 min 0 lux 0 W/m
19.10.2015 04:10 8,0 C 7,9 C 90 % 1019,1 hPa 0,0 l/m 0,0 km/h (0 Bft) S-SW 210 0 min 0 lux 0 W/m
19.10.2015 04:14 8,0 C 7,9 C 90 % 1019,1 hPa 0,0 l/m 0,0 km/h (0 Bft) S-SW 210 0 min 0 lux 0 W/m
19.10.2015 04:20 8,0 C 7,9 C 90 % 1019,1 hPa 0,0 l/m 0,0 km/h (0 Bft) S-SW 210 0 min 0 lux 0 W/m
19.10.2015 04:25 8,0 C 7,9 C 90 % 1019,1 hPa 0,0 l/m 0,0 km/h (0 Bft) S-SW 210 0 min 0 lux 0 W/m
19.10.2015 04:30 8,0 C 7,9 C 90 % 1019,1 hPa 0,0 l/m 0,0 km/h (0 Bft) S-SW 210 0 min 0 lux 0 W/m
19.10.2015 04:35 8,0 C 8,0 C 90 % 1019,1 hPa 0,0 l/m 0,0 km/h (0 Bft) S-SW 210 0 min 0 lux 0 W/m
19.10.2015 04:40 8,0 C 7,9 C 90 % 1019,1 hPa 0,0 l/m 0,0 km/h (0 Bft) S-SW 210 0 min 0 lux 0 W/m
19.10.2015 04:45 7,9 C 7,9 C 90 % 1019,1 hPa 0,0 l/m 0,0 km/h (0 Bft) S-SW 210 0 min 0 lux 0 W/m
19.10.2015 04:50 8,0 C 7,9 C 90 % 1019,1 hPa 0,0 l/m 0,0 km/h (0 Bft) S-SW 210 0 min 0 lux 0 W/m
19.10.2015 04:55 7,9 C 7,9 C 90 % 1019,1 hPa 0,0 l/m 0,0 km/h (0 Bft) S-SW 210 0 min 0 lux 0 W/m
19.10.2015 05:00 8,0 C 7,9 C 90 % 1019,1 hPa 0,0 l/m 0,0 km/h (0 Bft) S-SW 210 0 min 0 lux 0 W/m
19.10.2015 05:05 8,0 C 7,9 C 90 % 1019,1 hPa 0,0 l/m 0,0 km/h (0 Bft) S-SW 210 0 min 0 lux 0 W/m
19.10.2015 05:10 8,0 C 8,0 C 90 % 1019,1 hPa 0,0 l/m 0,0 km/h (0 Bft) S-SW 210 0 min 0 lux 0 W/m
19.10.2015 05:15 8,0 C 8,0 C 90 % 1019,1 hPa 0,0 l/m 0,0 km/h (0 Bft) S-SW 210 0 min 0 lux 0 W/m
19.10.2015 05:20 8,0 C 8,0 C 90 % 1019,1 hPa 0,0 l/m 0,0 km/h (0 Bft) S-SW 210 0 min 0 lux 0 W/m
19.10.2015 05:25 8,0 C 8,0 C 90 % 1019,1 hPa 0,0 l/m 0,0 km/h (0 Bft) S-SW 210 0 min 0 lux 0 W/m
19.10.2015 05:30 8,0 C 8,0 C 90 % 1019,1 hPa 0,0 l/m 0,0 km/h (0 Bft) S-SW 210 0 min 0 lux 0 W/m
19.10.2015 05:35 8,0 C 8,1 C 90 % 1019,1 hPa 0,0 l/m 0,0 km/h (0 Bft) S-SW 210 0 min 0 lux 0 W/m
19.10.2015 05:40 8,0 C 8,0 C 90 % 1019,1 hPa 0,0 l/m 0,0 km/h (0 Bft) S-SW 210 0 min 0 lux 0 W/m
19.10.2015 05:44 8,0 C 8,1 C 90 % 1019,1 hPa 0,0 l/m 0,0 km/h (0 Bft) S-SW 210 0 min 0 lux 0 W/m
19.10.2015 05:50 8,0 C 8,1 C 90 % 1019,1 hPa 0,0 l/m 0,0 km/h (0 Bft) S-SW 210 0 min 0 lux 0 W/m
19.10.2015 05:55 8,0 C 8,1 C 90 % 1019,1 hPa 0,0 l/m 0,0 km/h (0 Bft) S-SW 210 0 min 0 lux 0 W/m
19.10.2015 06:00 8,0 C 8,1 C 90 % 1019,1 hPa 0,0 l/m 0,0 km/h (0 Bft) S-SW 210 0 min 0 lux 0 W/m
19.10.2015 06:05 8,1 C 8,1 C 90 % 1019,1 hPa 0,0 l/m 0,0 km/h (0 Bft) S-SW 210 0 min 0 lux 0 W/m
19.10.2015 06:09 8,0 C 8,1 C 90 % 1019,1 hPa 0,0 l/m 0,0 km/h (0 Bft) S-SW 210 0 min 0 lux 0 W/m
19.10.2015 06:15 8,0 C 8,1 C 90 % 1019,1 hPa 0,0 l/m 0,0 km/h (0 Bft) S-SW 210 0 min 0 lux 0 W/m
19.10.2015 06:20 8,0 C 8,2 C 90 % 1020,1 hPa 0,0 l/m 0,0 km/h (0 Bft) S-SW 210 0 min 0 lux 0 W/m
19.10.2015 06:25 8,1 C 8,1 C 90 % 1020,1 hPa 0,0 l/m 0,0 km/h (0 Bft) S-SW 210 0 min 0 lux 0 W/m
19.10.2015 06:30 8,0 C 8,1 C 90 % 1020,1 hPa 0,0 l/m 0,0 km/h (0 Bft) S-SW 210 0 min 0 lux 0 W/m
19.10.2015 06:35 8,1 C 8,2 C 90 % 1020,1 hPa 0,0 l/m 0,0 km/h (0 Bft) S-SW 210 0 min 0 lux 0 W/m
19.10.2015 06:40 8,1 C 8,2 C 90 % 1020,1 hPa 0,0 l/m 0,0 km/h (0 Bft) S-SW 210 0 min 0 lux 0 W/m
19.10.2015 06:45 8,1 C 8,2 C 90 % 1020,1 hPa 0,0 l/m 0,0 km/h (0 Bft) S-SW 210 0 min 0 lux 0 W/m
19.10.2015 06:50 8,1 C 8,2 C 90 % 1020,1 hPa 0,0 l/m 0,0 km/h (0 Bft) S-SW 210 0 min 0 lux 0 W/m
19.10.2015 06:55 8,1 C 8,2 C 90 % 1020,1 hPa 0,0 l/m 0,0 km/h (0 Bft) S-SW 210 0 min 0 lux 0 W/m
19.10.2015 07:00 8,1 C 8,2 C 90 % 1020,1 hPa 0,0 l/m 0,0 km/h (0 Bft) S-SW 210 0 min 0 lux 0 W/m
19.10.2015 07:04 8,1 C 8,2 C 90 % 1020,1 hPa 0,0 l/m 0,0 km/h (0 Bft) S-SW 210 0 min 0 lux 0 W/m
19.10.2015 07:10 8,1 C 8,2 C 90 % 1020,1 hPa 0,0 l/m 0,0 km/h (0 Bft) S-SW 210 0 min 0 lux 0 W/m
19.10.2015 07:15 8,2 C 8,2 C 90 % 1020,1 hPa 0,0 l/m 0,0 km/h (0 Bft) S-SW 210 0 min 0 lux 0 W/m
19.10.2015 07:20 8,2 C 8,2 C 91 % 1020,1 hPa 0,0 l/m 0,0 km/h (0 Bft) S-SW 210 0 min 0 lux 0 W/m
19.10.2015 07:25 8,2 C 8,2 C 90 % 1020,1 hPa 0,0 l/m 0,0 km/h (0 Bft) S-SW 210 0 min 0 lux 0 W/m
19.10.2015 07:30 8,2 C 8,2 C 91 % 1020,1 hPa 0,0 l/m 0,0 km/h (0 Bft) S-SW 210 0 min 0 lux 0 W/m
19.10.2015 07:35 8,2 C 8,2 C 91 % 1020,1 hPa 0,0 l/m 0,0 km/h (0 Bft) S-SW 210 0 min 0 lux 0 W/m
19.10.2015 07:39 8,2 C 8,3 C 91 % 1020,1 hPa 0,0 l/m 0,0 km/h (0 Bft) S-SW 210 0 min 0 lux 0 W/m
19.10.2015 07:45 8,2 C 8,2 C 91 % 1020,1 hPa 0,0 l/m 0,0 km/h (0 Bft) S-SW 210 0 min 0 lux 0 W/m
19.10.2015 07:50 8,2 C 8,3 C 91 % 1020,1 hPa 0,0 l/m 0,0 km/h (0 Bft) S-SW 210 0 min 0 lux 0 W/m
19.10.2015 07:55 8,2 C 8,3 C 91 % 1020,1 hPa 0,0 l/m 0,0 km/h (0 Bft) S-SW 210 0 min 0 lux 0 W/m
19.10.2015 08:00 8,2 C 8,2 C 91 % 1020,1 hPa 0,0 l/m 0,0 km/h (0 Bft) S-SW 210 0 min 67 lux 0 W/m
19.10.2015 08:05 8,2 C 8,3 C 91 % 1020,1 hPa 0,0 l/m 0,0 km/h (0 Bft) S-SW 210 0 min 67 lux 0 W/m
19.10.2015 08:10 8,2 C 8,3 C 91 % 1020,1 hPa 0,0 l/m 0,0 km/h (0 Bft) S-SW 210 0 min 67 lux 0 W/m
19.10.2015 08:15 8,2 C 8,3 C 91 % 1020,1 hPa 0,0 l/m 0,0 km/h (0 Bft) S-SW 210 0 min 250 lux 2 W/m
19.10.2015 08:20 8,3 C 8,3 C 91 % 1020,1 hPa 0,0 l/m 0,0 km/h (0 Bft) S-SW 210 0 min 250 lux 2 W/m
19.10.2015 08:25 8,3 C 8,3 C 91 % 1020,1 hPa 0,0 l/m 0,0 km/h (0 Bft) S-SW 210 0 min 250 lux 2 W/m
19.10.2015 08:30 8,3 C 8,3 C 91 % 1020,1 hPa 0,0 l/m 0,0 km/h (0 Bft) S-SW 210 0 min 250 lux 2 W/m
19.10.2015 08:34 8,3 C 8,4 C 91 % 1020,1 hPa 0,0 l/m 0,0 km/h (0 Bft) S-SW 210 0 min 545 lux 4 W/m
19.10.2015 08:40 8,4 C 8,4 C 91 % 1020,1 hPa 0,0 l/m 0,0 km/h (0 Bft) S-SW 210 0 min 545 lux 4 W/m
19.10.2015 08:45 8,4 C 8,5 C 91 % 1020,1 hPa 0,0 l/m 0,0 km/h (0 Bft) S-SW 210 0 min 804 lux 5 W/m
19.10.2015 08:50 8,4 C 8,5 C 91 % 1020,1 hPa 0,0 l/m 0,0 km/h (0 Bft) S-SW 210 0 min 845 lux 6 W/m
19.10.2015 08:55 8,4 C 8,6 C 91 % 1020,1 hPa 0,0 l/m 0,0 km/h (0 Bft) S-SW 210 0 min 1,00 klux 7 W/m
19.10.2015 09:00 8,4 C 8,7 C 91 % 1020,1 hPa 0,0 l/m 0,0 km/h (0 Bft) S-SW 210 0 min 1,23 klux 8 W/m
19.10.2015 09:05 8,4 C 8,8 C 91 % 1021,1 hPa 0,0 l/m 0,0 km/h (0 Bft) S-SW 210 0 min 1,57 klux 11 W/m
19.10.2015 09:10 8,4 C 9,0 C 91 % 1021,1 hPa 0,0 l/m 0,0 km/h (0 Bft) S-SW 210 0 min 1,43 klux 10 W/m
19.10.2015 09:15 8,4 C 9,0 C 91 % 1021,1 hPa 0,0 l/m 0,0 km/h (0 Bft) S-SW 210 0 min 1,43 klux 10 W/m
19.10.2015 09:20 8,4 C 9,0 C 91 % 1021,1 hPa 0,0 l/m 0,0 km/h (0 Bft) S-SW 210 0 min 1,01 klux 7 W/m
19.10.2015 09:25 8,4 C 8,9 C 91 % 1021,1 hPa 0,0 l/m 0,0 km/h (0 Bft) S-SW 210 0 min 1,01 klux 7 W/m
19.10.2015 09:30 8,4 C 8,8 C 91 % 1021,1 hPa 0,0 l/m 0,0 km/h (0 Bft) S-SW 210 0 min 1,00 klux 7 W/m
19.10.2015 09:35 8,4 C 8,9 C 91 % 1021,1 hPa 0,0 l/m 0,0 km/h (0 Bft) S-SW 210 0 min 1,00 klux 7 W/m
19.10.2015 09:40 8,4 C 9,0 C 91 % 1021,1 hPa 0,0 l/m 0,0 km/h (0 Bft) S-SW 210 0 min 1,00 klux 7 W/m
19.10.2015 09:45 8,5 C 9,0 C 91 % 1021,1 hPa 0,0 l/m 0,0 km/h (0 Bft) S-SW 210 0 min 1,39 klux 10 W/m
19.10.2015 09:50 8,5 C 9,1 C 91 % 1021,1 hPa 0,0 l/m 0,0 km/h (0 Bft) S-SW 210 0 min 1,39 klux 10 W/m
19.10.2015 09:55 8,5 C 9,1 C 91 % 1021,1 hPa 0,0 l/m 0,0 km/h (0 Bft) S-SW 210 0 min 1,39 klux 10 W/m
19.10.2015 10:00 8,6 C 9,3 C 91 % 1021,1 hPa 0,0 l/m 0,0 km/h (0 Bft) S-SW 210 0 min 1,39 klux 10 W/m
19.10.2015 10:05 8,6 C 9,4 C 91 % 1021,1 hPa 0,0 l/m 0,0 km/h (0 Bft) S-SW 210 0 min 1,39 klux 10 W/m
19.10.2015 10:10 8,6 C 9,5 C 91 % 1021,1 hPa 0,0 l/m 0,0 km/h (0 Bft) S-SW 210 0 min 2,25 klux 15 W/m
19.10.2015 10:15 8,6 C 9,6 C 91 % 1021,1 hPa 0,0 l/m 0,0 km/h (0 Bft) S-SW 210 0 min 2,25 klux 15 W/m
19.10.2015 10:20 8,6 C 9,5 C 91 % 1021,1 hPa 0,0 l/m 0,0 km/h (0 Bft) S-SW 210 0 min 2,25 klux 15 W/m
19.10.2015 10:25 8,6 C 9,6 C 91 % 1021,1 hPa 0,0 l/m 0,0 km/h (0 Bft) S-SW 210 0 min 3,31 klux 23 W/m
19.10.2015 10:29 8,6 C 9,7 C 91 % 1021,1 hPa 0,0 l/m 0,0 km/h (0 Bft) S-SW 210 0 min 3,31 klux 23 W/m
19.10.2015 10:35 8,6 C 9,8 C 91 % 1021,1 hPa 0,0 l/m 0,0 km/h (0 Bft) S-SW 210 0 min 3,05 klux 21 W/m
19.10.2015 10:40 8,6 C 9,9 C 91 % 1021,1 hPa 0,0 l/m 0,0 km/h (0 Bft) S-SW 210 0 min 3,05 klux 21 W/m
19.10.2015 10:45 8,6 C 10,2 C 91 % 1021,1 hPa 0,0 l/m 0,0 km/h (0 Bft) S-SW 210 0 min 3,05 klux 21 W/m
19.10.2015 10:50 8,7 C 10,2 C 91 % 1021,1 hPa 0,0 l/m 0,0 km/h (0 Bft) S-SW 210 0 min 3,05 klux 21 W/m
19.10.2015 10:55 8,7 C 10,1 C 91 % 1021,1 hPa 0,0 l/m 0,0 km/h (0 Bft) S-SW 210 0 min 4,31 klux 29 W/m
19.10.2015 11:00 8,8 C 10,3 C 91 % 1021,1 hPa 0,0 l/m 0,0 km/h (0 Bft) S-SW 210 0 min 4,31 klux 29 W/m
19.10.2015 11:05 8,8 C 10,4 C 91 % 1021,1 hPa 0,0 l/m 0,0 km/h (0 Bft) S-SW 210 0 min 4,31 klux 29 W/m
19.10.2015 11:10 8,8 C 10,3 C 91 % 1021,1 hPa 0,0 l/m 0,0 km/h (0 Bft) S-SW 210 0 min 4,31 klux 29 W/m
19.10.2015 11:15 8,8 C 10,3 C 91 % 1021,1 hPa 0,0 l/m 0,0 km/h (0 Bft) S-SW 210 0 min 4,31 klux 29 W/m
19.10.2015 11:20 8,8 C 10,3 C 91 % 1021,1 hPa 0,0 l/m 0,0 km/h (0 Bft) S-SW 210 0 min 4,92 klux 34 W/m
19.10.2015 11:25 8,9 C 10,3 C 91 % 1021,1 hPa 0,0 l/m 0,0 km/h (0 Bft) S-SW 210 0 min 5,55 klux 38 W/m
19.10.2015 11:30 8,9 C 10,3 C 91 % 1021,1 hPa 0,0 l/m 0,0 km/h (0 Bft) S-SW 210 0 min 5,55 klux 38 W/m
19.10.2015 11:35 8,8 C 10,4 C 91 % 1021,1 hPa 0,0 l/m 0,0 km/h (0 Bft) S-SW 210 0 min 5,55 klux 38 W/m
19.10.2015 11:40 8,9 C 10,6 C 91 % 1021,1 hPa 0,0 l/m 0,0 km/h (0 Bft) S-SW 210 0 min 5,55 klux 38 W/m
19.10.2015 11:45 8,9 C 10,8 C 91 % 1021,1 hPa 0,0 l/m 0,0 km/h (0 Bft) S-SW 210 0 min 6,46 klux 44 W/m
19.10.2015 11:50 9,0 C 11,0 C 91 % 1021,1 hPa 0,0 l/m 0,0 km/h (0 Bft) S-SW 210 0 min 6,46 klux 44 W/m
19.10.2015 11:55 9,0 C 10,8 C 91 % 1021,1 hPa 0,0 l/m 0,0 km/h (0 Bft) S-SW 210 0 min 6,46 klux 44 W/m
19.10.2015 12:00 9,0 C 10,7 C 91 % 1021,1 hPa 0,0 l/m 0,0 km/h (0 Bft) S-SW 210 0 min 6,46 klux 44 W/m
19.10.2015 12:05 8,9 C 10,7 C 91 % 1021,1 hPa 0,0 l/m 0,0 km/h (0 Bft) S-SW 210 0 min 4,35 klux 30 W/m
19.10.2015 12:10 9,0 C 10,7 C 91 % 1021,1 hPa 0,0 l/m 0,0 km/h (0 Bft) S-SW 210 0 min 4,35 klux 30 W/m
19.10.2015 12:15 8,9 C 10,8 C 91 % 1022,1 hPa 0,0 l/m 0,0 km/h (0 Bft) S-SW 210 0 min 4,35 klux 30 W/m
19.10.2015 12:20 8,9 C 10,9 C 91 % 1022,1 hPa 0,0 l/m 0,0 km/h (0 Bft) S-SW 210 0 min 4,35 klux 30 W/m
19.10.2015 12:25 8,9 C 10,9 C 91 % 1022,1 hPa 0,0 l/m 0,0 km/h (0 Bft) S-SW 210 0 min 6,32 klux 43 W/m
19.10.2015 12:30 8,9 C 10,9 C 91 % 1021,1 hPa 0,0 l/m 0,0 km/h (0 Bft) S-SW 210 0 min 6,32 klux 43 W/m
19.10.2015 12:35 9,0 C 11,0 C 91 % 1021,1 hPa 0,0 l/m 0,0 km/h (0 Bft) S-SW 210 0 min 6,32 klux 43 W/m
19.10.2015 12:40 9,1 C 11,2 C 91 % 1022,1 hPa 0,0 l/m 0,0 km/h (0 Bft) S-SW 210 0 min 6,84 klux 47 W/m
19.10.2015 12:45 9,0 C 11,3 C 91 % 1022,1 hPa 0,0 l/m 0,0 km/h (0 Bft) S-SW 210 0 min 6,84 klux 47 W/m
19.10.2015 12:50 9,1 C 11,6 C 91 % 1022,1 hPa 0,0 l/m 0,0 km/h (0 Bft) S-SW 210 0 min 6,84 klux 47 W/m
19.10.2015 12:54 9,1 C 11,8 C 90 % 1021,1 hPa 0,0 l/m 0,0 km/h (0 Bft) S-SW 210 0 min 10,0 klux 68 W/m
19.10.2015 13:00 9,2 C 12,2 C 90 % 1022,1 hPa 0,0 l/m 0,0 km/h (0 Bft) S-SW 210 0 min 10,0 klux 68 W/m
19.10.2015 13:05 9,2 C 12,5 C 90 % 1022,1 hPa 0,0 l/m 0,0 km/h (0 Bft) S-SW 210 0 min 10,0 klux 68 W/m
19.10.2015 13:10 9,3 C 12,5 C 90 % 1022,1 hPa 0,0 l/m 0,0 km/h (0 Bft) S-SW 210 0 min 10,0 klux 68 W/m
19.10.2015 13:15 9,2 C 12,5 C 90 % 1022,1 hPa 0,0 l/m 0,0 km/h (0 Bft) S-SW 210 0 min 10,0 klux 68 W/m
19.10.2015 13:19 9,3 C 12,4 C 90 % 1022,1 hPa 0,0 l/m 0,0 km/h (0 Bft) S-SW 210 0 min 8,00 klux 55 W/m
19.10.2015 13:25 9,3 C 12,4 C 90 % 1022,1 hPa 0,0 l/m 0,0 km/h (0 Bft) S-SW 210 0 min 7,30 klux 50 W/m
19.10.2015 13:30 9,3 C 12,3 C 90 % 1022,1 hPa 0,0 l/m 0,0 km/h (0 Bft) S-SW 210 0 min 7,55 klux 52 W/m
19.10.2015 13:35 9,4 C 12,2 C 90 % 1022,1 hPa 0,0 l/m 0,0 km/h (0 Bft) S-SW 210 0 min 7,23 klux 49 W/m
19.10.2015 13:40 9,4 C 12,1 C 90 % 1021,0 hPa 0,0 l/m 0,0 km/h (0 Bft) S-SW 210 0 min 11,1 klux 76 W/m
19.10.2015 13:45 9,4 C 12,3 C 90 % 1021,0 hPa 0,0 l/m 0,0 km/h (0 Bft) S-SW 210 0 min 11,1 klux 76 W/m
19.10.2015 13:50 9,5 C 13,4 C 90 % 1021,0 hPa 0,0 l/m 0,0 km/h (0 Bft) S-SW 210 0 min 11,1 klux 76 W/m
19.10.2015 13:55 9,5 C 14,0 C 90 % 1021,0 hPa 0,0 l/m 0,0 km/h (0 Bft) S-SW 210 0 min 16,2 klux 111 W/m
19.10.2015 14:00 9,5 C 14,4 C 90 % 1021,0 hPa 0,0 l/m 0,0 km/h (0 Bft) S-SW 210 0 min 17,1 klux 117 W/m
19.10.2015 14:05 9,8 C 14,9 C 89 % 1021,0 hPa 0,0 l/m 0,0 km/h (0 Bft) S-SW 210 0 min 16,1 klux 110 W/m
19.10.2015 14:10 9,7 C 14,7 C 89 % 1021,0 hPa 0,0 l/m 0,0 km/h (0 Bft) S-SW 210 0 min 12,8 klux 88 W/m
19.10.2015 14:14 9,8 C 14,8 C 89 % 1021,0 hPa 0,0 l/m 0,0 km/h (0 Bft) S-SW 210 0 min 13,4 klux 92 W/m
19.10.2015 14:20 9,9 C 14,8 C 89 % 1021,0 hPa 0,0 l/m 0,0 km/h (0 Bft) S-SW 210 0 min 13,4 klux 92 W/m
19.10.2015 14:25 9,8 C 14,6 C 89 % 1021,0 hPa 0,0 l/m 0,0 km/h (0 Bft) S-SW 210 0 min 10,6 klux 73 W/m
19.10.2015 14:30 10,0 C 14,1 C 89 % 1021,0 hPa 0,0 l/m 0,0 km/h (0 Bft) S-SW 210 0 min 10,6 klux 73 W/m
19.10.2015 14:35 10,0 C 14,1 C 89 % 1021,0 hPa 0,0 l/m 0,0 km/h (0 Bft) S-SW 210 0 min 10,6 klux 73 W/m
19.10.2015 14:40 10,1 C 13,8 C 89 % 1021,0 hPa 0,0 l/m 0,0 km/h (0 Bft) S-SW 210 0 min 9,2 klux 63 W/m
19.10.2015 14:44 10,1 C 13,6 C 89 % 1021,0 hPa 0,0 l/m 0,0 km/h (0 Bft) S-SW 210 0 min 7,08 klux 48 W/m
19.10.2015 14:50 10,1 C 13,4 C 89 % 1021,0 hPa 0,0 l/m 0,0 km/h (0 Bft) S-SW 210 0 min 9,5 klux 65 W/m
19.10.2015 14:55 10,1 C 13,4 C 89 % 1021,0 hPa 0,0 l/m 0,0 km/h (0 Bft) S-SW 210 0 min 8,53 klux 58 W/m
19.10.2015 15:00 10,2 C 13,7 C 89 % 1021,0 hPa 0,0 l/m 0,0 km/h (0 Bft) S-SW 210 0 min 8,53 klux 58 W/m
19.10.2015 15:05 10,3 C 13,7 C 89 % 1021,0 hPa 0,0 l/m 0,0 km/h (0 Bft) S-SW 210 0 min 10,0 klux 68 W/m
19.10.2015 15:09 10,2 C 13,7 C 88 % 1021,0 hPa 0,0 l/m 0,0 km/h (0 Bft) S-SW 210 0 min 8,91 klux 61 W/m
19.10.2015 15:15 10,2 C 13,5 C 88 % 1021,0 hPa 0,0 l/m 0,0 km/h (0 Bft) S-SW 210 0 min 8,91 klux 61 W/m
19.10.2015 15:20 10,2 C 13,6 C 88 % 1021,0 hPa 0,0 l/m 0,0 km/h (0 Bft) S-SW 210 0 min 11,3 klux 77 W/m
19.10.2015 15:25 10,2 C 13,6 C 88 % 1021,0 hPa 0,0 l/m 0,0 km/h (0 Bft) S-SW 210 0 min 11,3 klux 77 W/m
19.10.2015 15:30 10,2 C 13,6 C 88 % 1021,0 hPa 0,0 l/m 0,0 km/h (0 Bft) S-SW 210 0 min 11,3 klux 77 W/m
19.10.2015 15:35 10,2 C 14,0 C 88 % 1021,0 hPa 0,0 l/m 0,0 km/h (0 Bft) S-SW 210 0 min 10,0 klux 68 W/m
19.10.2015 15:39 10,4 C 14,1 C 87 % 1021,0 hPa 0,0 l/m 0,0 km/h (0 Bft) S-SW 210 0 min 10,0 klux 68 W/m
19.10.2015 15:45 10,5 C 14,1 C 88 % 1021,0 hPa 0,0 l/m 0,0 km/h (0 Bft) S-SW 210 0 min 8,96 klux 61 W/m
19.10.2015 15:50 10,5 C 14,0 C 88 % 1021,0 hPa 0,0 l/m 0,0 km/h (0 Bft) S-SW 210 0 min 8,69 klux 59 W/m
19.10.2015 15:55 10,5 C 13,9 C 88 % 1021,0 hPa 0,0 l/m 0,0 km/h (0 Bft) S-SW 210 0 min 8,03 klux 55 W/m
19.10.2015 16:00 10,5 C 13,7 C 88 % 1021,0 hPa 0,0 l/m 0,0 km/h (0 Bft) S-SW 210 0 min 10,7 klux 73 W/m
19.10.2015 16:05 10,5 C 13,7 C 87 % 1021,0 hPa 0,0 l/m 0,0 km/h (0 Bft) S-SW 210 0 min 12,5 klux 86 W/m
19.10.2015 16:10 10,6 C 13,9 C 87 % 1021,0 hPa 0,0 l/m 0,0 km/h (0 Bft) S-SW 210 0 min 11,9 klux 81 W/m
19.10.2015 16:15 10,6 C 14,0 C 87 % 1021,0 hPa 0,0 l/m 0,0 km/h (0 Bft) S-SW 210 0 min 10,8 klux 74 W/m
19.10.2015 16:20 10,7 C 13,7 C 87 % 1021,0 hPa 0,0 l/m 0,0 km/h (0 Bft) S-SW 210 0 min 10,8 klux 74 W/m
19.10.2015 16:25 10,7 C 13,8 C 87 % 1021,0 hPa 0,0 l/m 0,0 km/h (0 Bft) S-SW 210 0 min 7,88 klux 54 W/m
19.10.2015 16:30 10,7 C 13,6 C 87 % 1021,0 hPa 0,0 l/m 0,0 km/h (0 Bft) S-SW 210 0 min 7,13 klux 49 W/m
19.10.2015 16:34 10,6 C 13,1 C 86 % 1021,0 hPa 0,0 l/m 0,0 km/h (0 Bft) S-SW 210 0 min 7,49 klux 51 W/m
19.10.2015 16:40 10,5 C 13,0 C 86 % 1021,0 hPa 0,0 l/m 0,0 km/h (0 Bft) S-SW 210 0 min 9,6 klux 66 W/m
19.10.2015 16:45 10,5 C 12,9 C 85 % 1021,0 hPa 0,0 l/m 0,0 km/h (0 Bft) S-SW 210 0 min 6,46 klux 44 W/m
19.10.2015 16:50 10,5 C 12,7 C 85 % 1021,0 hPa 0,0 l/m 0,0 km/h (0 Bft) S-SW 210 0 min 5,12 klux 35 W/m
19.10.2015 16:55 10,5 C 12,3 C 85 % 1021,0 hPa 0,0 l/m 0,0 km/h (0 Bft) S-SW 210 0 min 5,85 klux 40 W/m
19.10.2015 17:00 10,5 C 12,3 C 85 % 1021,0 hPa 0,0 l/m 0,0 km/h (0 Bft) S-SW 210 0 min 5,89 klux 40 W/m
19.10.2015 17:05 10,5 C 12,2 C 85 % 1021,0 hPa 0,0 l/m 0,0 km/h (0 Bft) S-SW 210 0 min 4,91 klux 34 W/m
19.10.2015 17:10 10,5 C 12,1 C 85 % 1021,0 hPa 0,0 l/m 0,0 km/h (0 Bft) S-SW 210 0 min 5,77 klux 39 W/m
19.10.2015 17:15 10,5 C 12,2 C 85 % 1021,0 hPa 0,0 l/m 0,0 km/h (0 Bft) S-SW 210 0 min 5,36 klux 37 W/m
19.10.2015 17:20 10,6 C 12,1 C 86 % 1021,0 hPa 0,0 l/m 0,0 km/h (0 Bft) S-SW 210 0 min 3,33 klux 23 W/m
19.10.2015 17:25 10,6 C 12,0 C 86 % 1021,0 hPa 0,0 l/m 0,0 km/h (0 Bft) S-SW 210 0 min 3,55 klux 24 W/m
19.10.2015 17:29 10,6 C 11,8 C 86 % 1021,0 hPa 0,0 l/m 0,0 km/h (0 Bft) S-SW 210 0 min 3,86 klux 26 W/m
19.10.2015 17:35 10,6 C 11,8 C 86 % 1021,0 hPa 0,0 l/m 0,0 km/h (0 Bft) S-SW 210 0 min 3,48 klux 24 W/m
19.10.2015 17:40 10,6 C 11,5 C 86 % 1021,0 hPa 0,0 l/m 0,0 km/h (0 Bft) S-SW 210 0 min 2,16 klux 15 W/m
19.10.2015 17:45 10,6 C 11,4 C 86 % 1021,0 hPa 0,0 l/m 0,0 km/h (0 Bft) S-SW 210 0 min 1,93 klux 13 W/m
19.10.2015 17:50 10,6 C 11,2 C 86 % 1021,0 hPa 0,0 l/m 0,0 km/h (0 Bft) S-SW 210 0 min 1,57 klux 11 W/m
19.10.2015 17:55 10,4 C 11,1 C 86 % 1021,0 hPa 0,0 l/m 0,0 km/h (0 Bft) S-SW 210 0 min 1,48 klux 10 W/m
19.10.2015 17:59 10,4 C 10,9 C 86 % 1021,0 hPa 0,0 l/m 0,0 km/h (0 Bft) S-SW 210 0 min 994 lux 7 W/m
19.10.2015 18:05 10,4 C 10,7 C 86 % 1021,0 hPa 0,0 l/m 0,0 km/h (0 Bft) S-SW 210 0 min 904 lux 6 W/m
19.10.2015 18:10 10,4 C 10,6 C 86 % 1021,0 hPa 0,0 l/m 0,0 km/h (0 Bft) S-SW 210 0 min 980 lux 7 W/m
19.10.2015 18:15 10,4 C 10,5 C 86 % 1021,0 hPa 0,0 l/m 0,0 km/h (0 Bft) S-SW 210 0 min 847 lux 6 W/m
19.10.2015 18:19 10,4 C 10,4 C 86 % 1021,0 hPa 0,0 l/m 0,0 km/h (0 Bft) S-SW 210 0 min 655 lux 4 W/m
19.10.2015 18:25 10,3 C 10,3 C 85 % 1021,0 hPa 0,0 l/m 0,0 km/h (0 Bft) S-SW 210 0 min 655 lux 4 W/m
19.10.2015 18:30 10,3 C 10,1 C 85 % 1021,0 hPa 0,0 l/m 0,0 km/h (0 Bft) S-SW 210 0 min 655 lux 0 W/m
19.10.2015 18:35 10,3 C 10,0 C 85 % 1021,0 hPa 0,0 l/m 0,0 km/h (0 Bft) S-SW 210 0 min 655 lux 0 W/m
19.10.2015 18:40 10,3 C 10,0 C 85 % 1021,0 hPa 0,0 l/m 0,0 km/h (0 Bft) S-SW 210 0 min 167 lux 0 W/m
19.10.2015 18:45 10,3 C 9,9 C 85 % 1021,0 hPa 0,0 l/m 0,0 km/h (0 Bft) S-SW 210 0 min 105 lux 0 W/m
19.10.2015 18:49 10,2 C 9,6 C 85 % 1021,0 hPa 0,0 l/m 0,0 km/h (0 Bft) S-SW 210 0 min 55 lux 0 W/m
19.10.2015 18:55 10,2 C 9,1 C 85 % 1021,0 hPa 0,0 l/m 0,0 km/h (0 Bft) S-SW 210 0 min 55 lux 0 W/m
19.10.2015 19:00 10,1 C 8,9 C 86 % 1021,0 hPa 0,0 l/m 0,0 km/h (0 Bft) S-SW 210 0 min 55 lux 0 W/m
19.10.2015 19:05 10,0 C 8,7 C 86 % 1021,0 hPa 0,0 l/m 0,0 km/h (0 Bft) S-SW 210 0 min 11 lux 0 W/m
19.10.2015 19:10 10,0 C 8,7 C 86 % 1021,0 hPa 0,0 l/m 0,0 km/h (0 Bft) S-SW 210 0 min 5 lux 0 W/m
19.10.2015 19:14 10,0 C 8,7 C 86 % 1021,0 hPa 0,0 l/m 0,0 km/h (0 Bft) S-SW 210 0 min 0 lux 0 W/m
19.10.2015 19:20 10,0 C 8,6 C 86 % 1021,0 hPa 0,0 l/m 0,0 km/h (0 Bft) S-SW 210 0 min 0 lux 0 W/m
19.10.2015 19:25 9,9 C 8,2 C 86 % 1021,0 hPa 0,0 l/m 0,0 km/h (0 Bft) S-SW 210 0 min 0 lux 0 W/m
19.10.2015 19:30 9,7 C 8,1 C 86 % 1021,0 hPa 0,0 l/m 0,0 km/h (0 Bft) S-SW 210 0 min 0 lux 0 W/m
19.10.2015 19:35 9,5 C 7,7 C 86 % 1022,1 hPa 0,0 l/m 0,0 km/h (0 Bft) S-SW 210 0 min 0 lux 0 W/m
19.10.2015 19:40 9,4 C 7,2 C 86 % 1022,1 hPa 0,0 l/m 0,0 km/h (0 Bft) S-SW 210 0 min 0 lux 0 W/m
19.10.2015 19:44 9,2 C 7,3 C 85 % 1022,1 hPa 0,0 l/m 0,0 km/h (0 Bft) S-SW 210 0 min 0 lux 0 W/m
19.10.2015 19:50 9,1 C 7,2 C 86 % 1022,1 hPa 0,0 l/m 0,0 km/h (0 Bft) S-SW 210 0 min 0 lux 0 W/m
19.10.2015 19:55 9,0 C 7,4 C 86 % 1022,1 hPa 0,0 l/m 0,0 km/h (0 Bft) S-SW 210 0 min 0 lux 0 W/m
19.10.2015 20:00 8,9 C 7,5 C 86 % 1022,1 hPa 0,0 l/m 0,0 km/h (0 Bft) S-SW 210 0 min 0 lux 0 W/m
19.10.2015 20:05 8,9 C 7,5 C 86 % 1022,1 hPa 0,0 l/m 0,0 km/h (0 Bft) S-SW 210 0 min 0 lux 0 W/m
19.10.2015 20:10 8,8 C 7,6 C 86 % 1022,1 hPa 0,0 l/m 0,0 km/h (0 Bft) S-SW 210 0 min 0 lux 0 W/m
19.10.2015 20:15 8,9 C 7,7 C 86 % 1022,1 hPa 0,0 l/m 0,0 km/h (0 Bft) S-SW 210 0 min 0 lux 0 W/m
19.10.2015 20:20 9,0 C 7,7 C 86 % 1022,1 hPa 0,0 l/m 0,0 km/h (0 Bft) S-SW 210 0 min 0 lux 0 W/m
19.10.2015 20:25 8,9 C 7,7 C 86 % 1022,1 hPa 0,0 l/m 0,0 km/h (0 Bft) S-SW 210 0 min 0 lux 0 W/m
19.10.2015 20:30 8,9 C 7,5 C 86 % 1022,1 hPa 0,0 l/m 0,0 km/h (0 Bft) S-SW 210 0 min 0 lux 0 W/m
19.10.2015 20:35 8,8 C 7,0 C 87 % 1022,1 hPa 0,0 l/m 0,0 km/h (0 Bft) S-SW 210 0 min 0 lux 0 W/m
19.10.2015 20:40 8,8 C 6,8 C 87 % 1022,1 hPa 0,0 l/m 0,0 km/h (0 Bft) S-SW 210 0 min 0 lux 0 W/m
19.10.2015 20:45 8,8 C 6,3 C 87 % 1022,1 hPa 0,0 l/m 0,0 km/h (0 Bft) S-SW 210 0 min 0 lux 0 W/m
19.10.2015 20:50 8,7 C 6,1 C 87 % 1022,1 hPa 0,0 l/m 0,0 km/h (0 Bft) S-SW 210 0 min 0 lux 0 W/m
19.10.2015 20:55 8,5 C 6,0 C 87 % 1022,1 hPa 0,0 l/m 0,0 km/h (0 Bft) S-SW 210 0 min 0 lux 0 W/m
19.10.2015 21:00 8,4 C 5,9 C 87 % 1022,1 hPa 0,0 l/m 0,0 km/h (0 Bft) S-SW 210 0 min 0 lux 0 W/m
19.10.2015 21:05 8,2 C 5,9 C 87 % 1022,1 hPa 0,0 l/m 0,0 km/h (0 Bft) S-SW 210 0 min 0 lux 0 W/m
19.10.2015 21:10 8,1 C 5,9 C 87 % 1022,1 hPa 0,0 l/m 0,0 km/h (0 Bft) S-SW 210 0 min 0 lux 0 W/m
19.10.2015 21:15 7,8 C 5,6 C 87 % 1022,1 hPa 0,0 l/m 0,0 km/h (0 Bft) S-SW 210 0 min 0 lux 0 W/m
19.10.2015 21:20 7,8 C 5,4 C 87 % 1022,1 hPa 0,0 l/m 0,0 km/h (0 Bft) S-SW 210 0 min 0 lux 0 W/m
19.10.2015 21:25 7,7 C 5,6 C 87 % 1022,1 hPa 0,0 l/m 0,0 km/h (0 Bft) S-SW 210 0 min 0 lux 0 W/m
19.10.2015 21:29 7,7 C 5,8 C 88 % 1022,1 hPa 0,0 l/m 0,0 km/h (0 Bft) S-SW 210 0 min 0 lux 0 W/m
19.10.2015 21:35 7,7 C 6,0 C 88 % 1022,1 hPa 0,0 l/m 0,0 km/h (0 Bft) S-SW 210 0 min 0 lux 0 W/m
19.10.2015 21:40 7,8 C 6,2 C 88 % 1022,1 hPa 0,0 l/m 0,0 km/h (0 Bft) S-SW 210 0 min 0 lux 0 W/m
19.10.2015 21:45 7,6 C 6,1 C 88 % 1022,1 hPa 0,0 l/m 0,0 km/h (0 Bft) S-SW 210 0 min 0 lux 0 W/m
19.10.2015 21:50 7,8 C 5,9 C 88 % 1022,1 hPa 0,0 l/m 0,0 km/h (0 Bft) S-SW 210 0 min 0 lux 0 W/m
19.10.2015 21:55 7,8 C 5,8 C 88 % 1022,1 hPa 0,0 l/m 0,0 km/h (0 Bft) S-SW 210 0 min 0 lux 0 W/m
19.10.2015 21:59 7,7 C 5,8 C 88 % 1022,1 hPa 0,0 l/m 0,0 km/h (0 Bft) S-SW 210 0 min 0 lux 0 W/m
19.10.2015 22:05 7,6 C 5,9 C 88 % 1022,1 hPa 0,0 l/m 0,0 km/h (0 Bft) S-SW 210 0 min 0 lux 0 W/m
19.10.2015 22:10 7,6 C 6,0 C 88 % 1022,1 hPa 0,0 l/m 0,0 km/h (0 Bft) S-SW 210 0 min 0 lux 0 W/m
19.10.2015 22:15 7,6 C 6,0 C 88 % 1022,1 hPa 0,0 l/m 0,0 km/h (0 Bft) S-SW 210 0 min 0 lux 0 W/m
19.10.2015 22:20 7,6 C 6,1 C 88 % 1022,1 hPa 0,0 l/m 0,0 km/h (0 Bft) S-SW 210 0 min 0 lux 0 W/m
19.10.2015 22:25 7,7 C 6,2 C 88 % 1022,1 hPa 0,0 l/m 0,0 km/h (0 Bft) S-SW 210 0 min 0 lux 0 W/m
19.10.2015 22:30 7,8 C 6,3 C 88 % 1022,1 hPa 0,0 l/m 0,0 km/h (0 Bft) S-SW 210 0 min 0 lux 0 W/m
19.10.2015 22:35 7,6 C 6,3 C 88 % 1022,1 hPa 0,0 l/m 0,0 km/h (0 Bft) S-SW 210 0 min 0 lux 0 W/m
19.10.2015 22:40 7,6 C 6,2 C 88 % 1022,1 hPa 0,0 l/m 0,0 km/h (0 Bft) S-SW 210 0 min 0 lux 0 W/m
19.10.2015 22:45 7,6 C 6,1 C 88 % 1022,1 hPa 0,0 l/m 0,0 km/h (0 Bft) S-SW 210 0 min 0 lux 0 W/m
19.10.2015 22:50 7,5 C 6,0 C 88 % 1022,1 hPa 0,0 l/m 0,0 km/h (0 Bft) S-SW 210 0 min 0 lux 0 W/m
19.10.2015 22:55 7,4 C 5,6 C 88 % 1022,1 hPa 0,0 l/m 0,0 km/h (0 Bft) S-SW 210 0 min 0 lux 0 W/m
19.10.2015 23:00 7,4 C 5,3 C 88 % 1022,1 hPa 0,0 l/m 0,0 km/h (0 Bft) S-SW 210 0 min 0 lux 0 W/m
19.10.2015 23:05 7,4 C 5,1 C 88 % 1022,1 hPa 0,0 l/m 0,0 km/h (0 Bft) S-SW 210 0 min 0 lux 0 W/m
19.10.2015 23:10 7,2 C 4,8 C 88 % 1022,1 hPa 0,0 l/m 0,0 km/h (0 Bft) S-SW 210 0 min 0 lux 0 W/m
19.10.2015 23:15 7,2 C 4,8 C 88 % 1022,1 hPa 0,0 l/m 0,0 km/h (0 Bft) S-SW 210 0 min 0 lux 0 W/m
19.10.2015 23:20 7,2 C 4,8 C 88 % 1022,1 hPa 0,0 l/m 0,0 km/h (0 Bft) S-SW 210 0 min 0 lux 0 W/m
19.10.2015 23:25 7,1 C 4,6 C 88 % 1022,1 hPa 0,0 l/m 0,0 km/h (0 Bft) S-SW 210 0 min 0 lux 0 W/m
19.10.2015 23:30 7,0 C 4,4 C 88 % 1022,1 hPa 0,0 l/m 0,0 km/h (0 Bft) S-SW 210 0 min 0 lux 0 W/m
19.10.2015 23:35 6,5 C 4,3 C 88 % 1022,1 hPa 0,0 l/m 0,0 km/h (0 Bft) S-SW 210 0 min 0 lux 0 W/m
19.10.2015 23:40 6,4 C 4,4 C 88 % 1022,1 hPa 0,0 l/m 0,0 km/h (0 Bft) S-SW 210 0 min 0 lux 0 W/m
19.10.2015 23:45 6,5 C 4,8 C 88 % 1022,1 hPa 0,0 l/m 0,0 km/h (0 Bft) S-SW 210 0 min 0 lux 0 W/m
19.10.2015 23:50 6,9 C 5,0 C 89 % 1022,1 hPa 0,0 l/m 0,0 km/h (0 Bft) S-SW 210 0 min 0 lux 0 W/m
19.10.2015 23:55 7,2 C 5,0 C 89 % 1022,1 hPa 0,0 l/m 0,0 km/h (0 Bft) S-SW 210 0 min 0 lux 0 W/m
_ Min-Zeit 23:40 23:35 16:45 06:05 - 00:00 - - - - -
Minimum _ 6,4 C 4,3 C 85 % 1019,1 hPa - 0,0 km/h (0 Bft) - - - - -
_ Max-Zeit 16:20 14:05 07:20 23:40 00:00 00:50 - - 00:00 14:00 14:00
Maximum _ 10,7 C 14,9 C 91 % 1022,1 hPa 0,4 l/m 10,3 km/h
SW (2 Bft)
- - 0 min 17,1 klux 117 W/m
Durchschnitt _ 8,7 C 9,2 C 89 % 1020,7 hPa #0,4 l/m 0,9 km/h (0 Bft) SW - #0 min. 2,50 klux 40 W/m